Powrót do katalogu

STARLINK-36961

AktywnyŁącznośćSSO
NORAD 68900·PAYLOAD·🇺🇸 United States

Wystrzelony Apr 30, 2026 z Vandenberg Space Force Base

Loading…

Następne Przeloty (najbliższe 24 godziny)

TLE

ŚwieżeSource: CelesTrak SupGP

Epoka: Sep 15, 2026, 03:27 UTC

1 68900C 26097F   26258.14423611 -.00050395  00000+0 -15642-2 0  2583
2 68900  97.2852  92.3468 0001761  93.2241 139.4069 15.33468454    12

Śledź STARLINK-36961 w czasie rzeczywistym z AllMySat

Download on the App Store